TimeCDT,TemperatureF,Dew PointF,Humidity,Sea Level PressureIn,VisibilityMPH,Wind Direction,Wind SpeedMPH,Gust SpeedMPH,PrecipitationIn,Events,Conditions,WindDirDegrees,DateUTC
12:02 AM,78.8,57.2,47,30.07,10.0,WSW,10.4,21.9,N/A,Thunderstorm,Mostly Cloudy,250,2013-06-30 05:02:00
12:12 AM,78.8,59.0,51,30.08,10.0,WSW,13.8,19.6,N/A,,Mostly Cloudy,250,2013-06-30 05:12:00
12:51 AM,75.9,61.0,60,29.94,10.0,WSW,8.1,-,0.00,Rain,Light Rain,240,2013-06-30 05:51:00
1:51 AM,73.0,62.1,68,29.95,10.0,West,3.5,-,0.00,,Scattered Clouds,260,2013-06-30 06:51:00
2:51 AM,72.0,62.1,71,29.96,10.0,WSW,3.5,-,N/A,,Partly Cloudy,250,2013-06-30 07:51:00
3:51 AM,72.0,61.0,68,29.94,10.0,South,3.5,-,N/A,,Clear,190,2013-06-30 08:51:00
4:51 AM,73.0,61.0,66,29.95,10.0,ENE,5.8,-,N/A,,Overcast,70,2013-06-30 09:51:00
5:51 AM,72.0,50.0,46,29.95,10.0,East,10.4,19.6,N/A,,Clear,100,2013-06-30 10:51:00
6:51 AM,69.1,51.1,53,29.98,10.0,Variable,6.9,-,N/A,,Clear,0,2013-06-30 11:51:00
7:51 AM,69.1,55.9,63,30.00,10.0,NE,8.1,-,N/A,,Clear,40,2013-06-30 12:51:00
8:51 AM,72.0,57.0,59,30.00,10.0,Calm,Calm,-,N/A,,Clear,0,2013-06-30 13:51:00
9:51 AM,77.0,55.9,48,29.99,10.0,ENE,8.1,-,N/A,,Clear,60,2013-06-30 14:51:00
10:51 AM,79.0,54.0,42,30.01,10.0,ENE,10.4,-,N/A,,Clear,60,2013-06-30 15:51:00
11:51 AM,82.0,48.9,31,30.00,10.0,NE,12.7,17.3,N/A,,Clear,40,2013-06-30 16:51:00
12:51 PM,84.0,48.0,28,29.99,10.0,NNE,9.2,20.7,N/A,,Clear,20,2013-06-30 17:51:00
1:51 PM,86.0,51.1,30,29.97,10.0,NE,15.0,19.6,N/A,,Clear,40,2013-06-30 18:51:00
2:51 PM,87.1,50.0,28,29.96,10.0,NE,11.5,18.4,N/A,,Partly Cloudy,40,2013-06-30 19:51:00
3:51 PM,87.1,50.0,28,29.95,10.0,NE,11.5,19.6,N/A,,Clear,40,2013-06-30 20:51:00
4:51 PM,86.0,50.0,29,29.95,10.0,NNE,11.5,19.6,N/A,,Mostly Cloudy,20,2013-06-30 21:51:00
5:51 PM,75.9,62.1,62,30.00,10.0,NNE,11.5,-,0.00,Rain,Light Rain,20,2013-06-30 22:51:00
6:51 PM,75.0,61.0,62,30.00,10.0,Calm,Calm,-,0.02,,Scattered Clouds,0,2013-06-30 23:51:00
7:51 PM,73.0,60.1,64,29.98,10.0,NNE,5.8,-,0.00,,Overcast,30,2013-07-01 00:51:00
8:51 PM,70.0,62.1,76,30.00,10.0,Calm,Calm,-,0.01,,Clear,0,2013-07-01 01:51:00
9:51 PM,70.0,62.1,76,30.01,10.0,West,4.6,-,N/A,,Clear,260,2013-07-01 02:51:00
10:51 PM,71.1,62.1,73,30.04,10.0,Calm,Calm,-,N/A,,Partly Cloudy,0,2013-07-01 03:51:00
11:51 PM,70.0,60.1,71,30.04,10.0,NNE,5.8,-,N/A,,Partly Cloudy,30,2013-07-01 04:51:00